Weather History for Sitka, AK

Change the Weather History Date:

Monday, November 19, 2012

  Actual Average Record
Temperature  
Mean Temperature 41 °F -  
Max Temperature 43 °F 41 °F 53 °F (1979)
Min Temperature 39 °F 33 °F 16 °F (1963)
Degree Days  
Heating Degree Days 24    
Moisture  
Dew Point 27 °F    
Average Humidity 58    
Maximum Humidity 65    
Minimum Humidity 49    
Precipitation  
Precipitation 0.00 in - - ()
Sea Level Pressure  
Sea Level Pressure 29.15 in    
Wind  
Wind Speed 14 mph (ESE)    
Max Wind Speed 24 mph    
Max Gust Speed 36 mph    
Visibility 10 miles    
Events      
Averages and records for this station are not official NWS values.
T = Trace of Precipitation, MM = Missing Value Source: NWS Daily Summary

Daily Weather History Graph

Daily Weather History Graph

Search for Another Location

Airport:

Trip Planner

Search our weather history database for the weather conditions in past years. The results will help you decide how hot, cold, wet, or windy it might be!

Date:

Astronomy

Nov. 19, 2012 Rise Set
Actual Time 7:53 AM AKST 3:40 PM AKST
Civil Twilight 7:08 AM AKST 4:25 PM AKST
Nautical Twilight 6:20 AM AKST 5:13 PM AKST
Astronomical Twilight 5:34 AM AKST 5:58 PM AKST
Moon 12:29 PM AKST (11/19) 10:52 PM AKST (11/19)
Length of Visible Light 9h 17m
Length of Day
7h 47m
Waxing Crescent, 42% of the Moon is Illuminated
Nov 19
Waxing Crescent
Nov 20
First Quarter
Nov 28
Full
Dec 6
Last Quarter
Dec 12
New

Hourly Weather History & Observations

Time (AKST) Temp. Windchill Dew Point Humidity Pressure Visibility Wind Dir Wind Speed Gust Speed Precip Events Conditions
12:53 AM 39.9 °F 35.8 °F 28.9 °F 65% 29.05 in 10.0 mi NW 5.8 mph - N/A   Overcast
1:53 AM 41.0 °F 38.0 °F 23.0 °F 49% 29.04 in 10.0 mi Variable 4.6 mph - N/A   Clear
3:53 AM 41.0 °F 35.8 °F 24.1 °F 51% 29.04 in 10.0 mi SE 8.1 mph - N/A   Overcast
4:53 AM 39.9 °F 29.5 °F 24.1 °F 53% 29.03 in 10.0 mi ESE 24.2 mph 35.7 mph N/A   Overcast
5:53 AM 39.0 °F 28.5 °F 26.1 °F 60% 29.02 in 10.0 mi East 23.0 mph 35.7 mph N/A   Overcast
6:53 AM 39.0 °F 29.9 °F 28.0 °F 65% 29.04 in 10.0 mi ESE 17.3 mph 32.2 mph N/A   Overcast
7:53 AM 41.0 °F 31.6 °F 28.0 °F 60% 29.06 in 10.0 mi ESE 20.7 mph 33.4 mph N/A   Overcast
8:53 AM 39.9 °F 30.5 °F 28.0 °F 63% 29.06 in 10.0 mi ESE 19.6 mph 28.8 mph N/A   Mostly Cloudy
9:53 AM 43.0 °F 34.8 °F 27.0 °F 53% 29.08 in 10.0 mi East 18.4 mph 29.9 mph N/A   Overcast
10:53 AM 42.1 °F 33.6 °F 28.0 °F 58% 29.11 in 10.0 mi ESE 18.4 mph 24.2 mph N/A   Scattered Clouds
11:53 AM 42.1 °F 33.9 °F 27.0 °F 55% 29.11 in 10.0 mi ESE 17.3 mph 25.3 mph N/A   Scattered Clouds
12:53 PM 41.0 °F 33.1 °F 28.0 °F 60% 29.11 in 10.0 mi East 15.0 mph 27.6 mph N/A   Overcast
1:53 PM 41.0 °F 34.3 °F 27.0 °F 57% 29.13 in 10.0 mi ESE 11.5 mph 26.5 mph N/A   Mostly Cloudy
2:53 PM 41.0 °F 32.5 °F 27.0 °F 57% 29.15 in 10.0 mi ESE 17.3 mph 23.0 mph N/A   Overcast
3:53 PM 39.9 °F 30.5 °F 28.0 °F 63% 29.18 in 10.0 mi ESE 19.6 mph 23.0 mph N/A   Overcast
4:53 PM 41.0 °F 32.5 °F 28.0 °F 60% 29.20 in 10.0 mi ESE 17.3 mph 24.2 mph N/A   Overcast
5:53 PM 39.9 °F 31.1 °F 28.0 °F 63% 29.23 in 10.0 mi ESE 17.3 mph 25.3 mph N/A   Mostly Cloudy
6:53 PM 39.9 °F 30.8 °F 28.0 °F 63% 29.25 in 10.0 mi ESE 18.4 mph 27.6 mph N/A   Mostly Cloudy
7:53 PM 41.0 °F 33.1 °F 26.1 °F 55% 29.26 in 10.0 mi East 15.0 mph 19.6 mph N/A   Scattered Clouds
8:53 PM 41.0 °F 34.7 °F 25.0 °F 53% 29.28 in 10.0 mi SE 10.4 mph - N/A   Overcast
9:14 PM 41.0 °F 33.5 °F 26.6 °F 57% 29.28 in 10.0 mi ESE 13.8 mph 25.3 mph N/A   Overcast
9:53 PM 41.0 °F 32.8 °F 27.0 °F 57% 29.29 in 10.0 mi ESE 16.1 mph 29.9 mph N/A   Overcast
10:53 PM 39.9 °F 30.8 °F 26.1 °F 58% 29.31 in 10.0 mi East 18.4 mph 24.2 mph N/A   Mostly Cloudy
11:53 PM 39.9 °F 31.4 °F 26.1 °F 58% 29.32 in 10.0 mi East 16.1 mph 26.5 mph N/A   Partly Cloudy